Regional Weather Roundup
Issued by NWS Sioux Falls, SD

Home | Current Version | Previous Version | Text Only | Print | Product List | Glossary Off
Versions: 1 2 3 4 5 6 7 8 9 10 11 12 13 14 15 16 17 18 19 20 21 22 23 24 25 26 27 28 29 30 31 32 33 34 35 36 37 38 39 40 41 42 43 44 45 46 47 48 49 50

958
ASUS43 KFSD 110210
RWRFSD

WEATHER ROUNDUP FOR SE SOUTH DAKOTA/SW MINNESOTA/NW IOWA
NATIONAL WEATHER SERVICE SIOUX FALLS SD
800 PM CST SAT DEC 10 2016

NOTE: "FAIR" INDICATES FEW OR NO CLOUDS BELOW 12,000 FEET WITH NO
SIGNIFICANT WEATHER AND OR OBSTRUCTIONS TO VISIBILITY.


SDZ038>040-050-052>070-110300-
SOUTHEAST SOUTH DAKOTA

CITY           SKY/WX    TMP DP  RH WIND       PRES   REMARKS
BROOKINGS      LGT SNOW   9   6  88 E14       30.01F FOG     WCI  -7
CHAMBERLAIN    CLOUDY    20  19  93 E15       29.86F WCI   6
HURON          FLURRIES  13  10  88 E15       29.98F WCI  -3
MADISON        LGT SNOW  12  12 100 MISG      29.98F
MITCHELL       CLOUDY    19  16  88 SE15      29.97F WCI   5
SIOUX FALLS    FLURRIES  18  16  92 E13       30.00F WCI   5
WINNER         CLOUDY    22  18  85 E17       29.78F WCI   8
YANKTON        CLOUDY    23  18  80 E13       29.96F WCI  11
$$

MNZ071-072-080-081-089-090-097-098-110300-
SOUTHWEST MINNESOTA

CITY           SKY/WX    TMP DP  RH WIND       PRES   REMARKS
FAIRMONT       LGT SNOW  16  13  88 E13       30.10F FOG     WCI   2
JACKSON        LGT SNOW  14  12  92 E14       30.06F WCI  -1
LUVERNE        LGT SNOW  18  14  86 E9        30.04R WCI   6
MARSHALL       LGT SNOW  10   7  85 E10       30.10F FOG     WCI  -3
MONTEVIDEO     LGT SNOW  10   9  92 SE10      30.15F WCI  -3
PIPESTONE      LGT SNOW  12  10  92 SE14      30.01F WCI  -3
REDWOOD FALLS  LGT SNOW  12   8  84 E9        30.13F VSB 1   WCI   0
TRACY          LGT SNOW  12   9  89 E9        30.09S WCI  -1
WINDOM         LGT SNOW  12  10  92 MISG      30.07F
WORTHINGTON    FLURRIES  15  13  91 E14       30.04S WCI   0
$$

IAZ001>003-012>014-020>022-031-032-NEZ013-014-SDZ071-110300-
NORTHWEST IOWA

CITY           SKY/WX    TMP DP  RH WIND       PRES   REMARKS
CHEROKEE       CLOUDY    22  20  92 SE8       30.04S WCI  13
DENISON        CLOUDY    25  19  80 SE12G21   29.99F WCI  14
ESTHERVILLE    LGT SNOW  17  16  95 SE14      30.07F FOG     WCI   3
LE MARS        CLOUDY    23  19  86 SE12G17   30.02F WCI  12
ORANGE CITY    CLOUDY    21  19  93 SE6       30.01F WCI  14
SHELDON        LGT SNOW  21  21 100 SE14G20   30.02R WCI   8
SIOUX CITY     CLOUDY    27  20  75 SE14      29.99F WCI  16
SPENCER        LGT SNOW  20  18  92 SE14      30.05F FOG     WCI   7
STORM LAKE     LGT SNOW  21  19  93 SE16      30.03S WCI   7
$$

ABBREVIATIONS USED IN REMARKS
   TC - TEMPERATURE IN CELSIUS
  WCI - WIND CHILL INDEX
   HX - HEAT INDEX
  VSB - VISIBILITY





USA.gov is the U.S. government's official web portal to all federal, state and local government web resources and services.